8,
Avoca, PA
on Tuesday, February 5, 2013

Tuesday
Previous Day Next Day
Daily Summary
 ActualAverageRecord
Temperature
Mean Temperature °F 27°F  
Max Temperature 31°F 35°F 59°F (1991)
Min Temperature 22°F 19°F -10°F (1918)
Degree Days
Heating Degree Days 38 38  
Month to date heating degree days 215 191  
Since 1 July heating degree days 3432 3782  
Cooling Degree Days 0 0  
Month to date cooling degree days 0 0  
Year to date cooling degree days 0 0  
Moisture
Dew Point 22°F   
Average Humidity 81    
Maximum Humidity 92    
Minimum Humidity 69    
Precipitation
Precipitation 0.03 in 0.07 in 1.54 in (1920)
Month to date precipitation 0.05 0.39  
Year to date precipitation 2.07 2.76  
Wind
Wind Speed 2 mph   
Max Wind Speed 7 mph   
Max Gust Speed 9 mph   
Visibility 4 miles   
Events Snow   

Key: T is trace of precipitation, MM is missing value
Source: NWS Daily Summary
Time(EST)TemperatureDew PointHumidity Pressure Visibility Wind DirectionWind SpeedGust SpeedPrecipitationEvents Conditions
12:54 AM 21.9°F 17.1°F 82% 29.89 in 3.0 miles Calm Calm - 0.00 in Snow Light Snow
1:54 AM 21.9°F 18.0°F 85% 29.90 in 3.0 miles Calm Calm - 0.00 in Snow Light Snow
2:02 AM 21.2°F 19.4°F 93% 29.86 in 2.5 miles Calm Calm - 0.00 in Snow Light Snow
2:20 AM 21.2°F 19.4°F 93% 29.86 in 2.5 miles Calm Calm - 0.00 in Snow Light Snow
2:54 AM 21.9°F 19.0°F 89% 29.89 in 2.5 miles Calm Calm - 0.01 in Snow Light Snow
3:24 AM 21.2°F 19.4°F 93% 29.83 in 3.0 miles NE 5.8 mph - 0.00 in Snow Light Snow
3:54 AM 21.9°F 19.9°F 92% 29.88 in 4.0 miles Calm Calm - 0.00 in Snow Light Snow
4:54 AM 21.9°F 19.0°F 89% 29.90 in 4.0 miles Calm Calm - 0.00 in Snow Light Snow
5:54 AM 21.9°F 19.9°F 92% 29.90 in 5.0 miles NNE 3.5 mph - 0.00 in   Overcast
6:54 AM 21.9°F 19.0°F 89% 29.91 in 6.0 miles NNE 4.6 mph - N/A   Overcast
7:54 AM 23.0°F 19.0°F 85% 29.92 in 4.0 miles Calm Calm - N/A   Overcast
8:16 AM 23.0°F 19.4°F 86% 29.89 in 2.5 miles Calm Calm - 0.00 in Snow Light Snow
8:46 AM 23.0°F 19.4°F 86% 29.90 in 1.8 miles NE 3.5 mph - 0.00 in Snow Light Snow
8:54 AM 23.0°F 19.0°F 85% 29.94 in 1.8 miles NE 4.6 mph - 0.00 in Snow Light Snow
9:22 AM 24.8°F 19.4°F 80% 29.90 in 2.0 miles Calm Calm - 0.00 in Snow Light Snow
9:44 AM 24.8°F 19.4°F 80% 29.90 in 3.0 miles Calm Calm - 0.01 in Snow Light Snow
9:54 AM 25.0°F 19.9°F 81% 29.94 in 3.0 miles Calm Calm - 0.01 in Snow Light Snow
10:54 AM 27.0°F 19.9°F 75% 29.93 in 6.0 miles NNE 4.6 mph - 0.00 in   Haze
11:54 AM 28.0°F 19.9°F 72% 29.91 in 7.0 miles Calm Calm - N/A   Mostly Cloudy
12:54 PM 30.0°F 21.0°F 69% 29.88 in 7.0 miles Calm Calm - N/A   Overcast
1:54 PM 30.9°F 21.9°F 69% 29.86 in 7.0 miles Calm Calm - N/A   Overcast
2:54 PM 30.0°F 21.9°F 72% 29.86 in 7.0 miles Calm Calm - N/A   Overcast
3:54 PM 30.9°F 23.0°F 72% 29.85 in 6.0 miles Calm Calm - N/A   Haze
4:07 PM 30.2°F 23.0°F 75% 29.82 in 2.0 miles Calm Calm - 0.00 in Snow Light Snow
4:15 PM 30.2°F 24.8°F 80% 29.82 in 1.0 miles Calm Calm - 0.00 in Snow Light Snow
4:54 PM 28.9°F 25.0°F 85% 29.85 in 1.2 miles Calm Calm - 0.00 in Snow Light Snow
5:08 PM 28.4°F 24.8°F 86% 29.82 in 2.0 miles WNW 3.5 mph - 0.00 in Snow Light Snow
5:21 PM 28.4°F 26.6°F 93% 29.82 in 2.0 miles Calm Calm - 0.00 in   Overcast
5:32 PM 28.4°F 26.6°F 93% 29.82 in 1.5 miles Calm Calm - 0.00 in Snow Light Snow
5:43 PM 28.4°F 26.6°F 93% 29.82 in 2.0 miles Calm Calm - 0.00 in Snow Light Snow
5:54 PM 28.9°F 26.1°F 89% 29.85 in 2.0 miles Calm Calm - 0.00 in Snow Light Snow
6:25 PM 28.4°F 26.6°F 93% 29.82 in 1.8 miles Calm Calm - 0.00 in Snow Light Snow
6:54 PM 28.9°F 27.0°F 92% 29.86 in 1.8 miles Calm Calm - 0.01 in Snow Light Snow
7:25 PM 28.4°F 26.6°F 93% 29.84 in 1.8 miles Calm Calm - 0.00 in Snow Light Snow
7:28 PM 28.4°F 26.6°F 93% 29.84 in 2.0 miles Calm Calm - 0.00 in Snow Light Snow
7:54 PM 28.0°F 26.1°F 92% 29.87 in 3.0 miles Calm Calm - 0.00 in   Overcast
8:04 PM 28.4°F 26.6°F 93% 29.84 in 2.5 miles Calm Calm - N/A   Overcast
8:13 PM 28.4°F 26.6°F 93% 29.84 in 3.0 miles Calm Calm - N/A   Overcast
8:54 PM 28.0°F 23.0°F 81% 29.88 in 7.0 miles SW 5.8 mph - N/A   Overcast
9:54 PM 28.0°F 24.1°F 85% 29.89 in 6.0 miles SW 4.6 mph - N/A   Overcast
10:54 PM 28.0°F 26.1°F 92% 29.89 in 4.0 miles SSW 4.6 mph - N/A   Overcast
11:35 PM 28.4°F 24.8°F 86% 29.87 in 4.0 miles SW 4.6 mph - N/A   Overcast
11:54 PM 28.0°F 25.0°F 88% 29.90 in 5.0 miles SW 4.6 mph - N/A   Overcast
Astronomy
Sunrise:07:09 AM (EST) Moon Rise:02:50 AM (EST)2/5
Sunset:05:24 PM (EST) Moon Set:12:38 PM (EST)2/5
Moon Phase
Feb. 05 Feb. 10 Feb. 17 Feb. 25 Mar. 04

Copyright © 2014 The Weather Underground, Inc.
8,